Location: Caltech
(34.1382°N, 118.1253°W)
Time: 11:15:32
(UTC-07:00)

Cosmos 2333 Rocket - Visible Passes

Search period start: 28 April 2015 00:00
Search period end: 08 May 2015 00:00
Orbit: 838 x 864 km, 70.8° (Epoch: 27 April)

Date Brightness Start Highest point End Pass type
(mag) Time Alt. Az. Time Alt. Az. Time Alt. Az.
28 Apr 2.5 04:55:17 10° S 05:00:57 71° ESE 05:06:42 10° NNE visible
29 Apr 2.5 04:43:18 11° S 04:48:42 71° ESE 04:54:28 10° NNE visible
30 Apr 2.4 04:31:59 17° S 04:36:27 71° ESE 04:42:13 10° NNE visible
01 May 2.4 04:20:34 23° S 04:24:13 71° ESE 04:29:58 10° NNE visible
02 May 2.4 04:09:06 30° S 04:11:58 71° ESE 04:17:43 10° NNE visible
03 May 2.4 03:57:32 39° S 03:59:43 71° ESE 04:05:28 10° NNE visible
04 May 2.3 03:45:55 48° S 03:47:28 71° ESE 03:53:14 10° NNE visible
04 May 4.1 05:29:03 10° W 05:32:26 15° NW 05:35:33 10° NNW visible
05 May 2.3 03:34:14 58° SSE 03:35:13 71° ESE 03:40:59 10° NNE visible
05 May 4.1 05:16:48 10° W 05:20:11 15° NW 05:23:19 10° NNW visible
06 May 2.2 03:22:31 67° SE 03:22:59 71° ESE 03:28:44 10° NNE visible
06 May 4.1 05:04:33 10° W 05:07:57 15° NW 05:11:04 10° NNW visible
07 May 2.3 03:10:44 71° ESE 03:10:44 71° ESE 03:16:30 10° NNE visible
07 May 4.1 04:52:45 11° W 04:55:42 15° NW 04:58:49 10° NNW visible
